ONEWEB-0053, 45157

Orbit data source: Space-Track

ONEWEB-0053, 45157 is a payload satellite owned by One Web (UK) in LEO that was launched on Thu, 06 Feb 2020 UTC via a SOYUZ-2-1B launch vehicle from the Tyuratam Missile And Space Complex (TTMTR). Payload-class satellites include a variety of spacecraft equipped with specific instruments for various scientific and technological missions. These include communications satellites like Starlink; space stations such as the ISS; scientific satellites like the Hubble; Earth observation satellites from companies like Planet Labs, Umbra, and HawkEye 360; GPS; miniature CubeSats for education and research; and military/defense satellites.

Loading next visibility...
Identifier
45157, 2020-008AC
Orbit
LEO
Last TLE update
22 hours ago
Origin
Manufacturer
One Web
Mission
Operational Commercial Communications
Bus & Motor
ARROW, Unknown motor
Mass
148 kg wet, ~140 kg dry
Launch date (UTC)
2020-02-06 (5 years ago)
Launch vehicle
SOYUZ-2-1B
Launch site
Tyuratam Missile And Space Complex (TTMTR)
Object type
Payload
Rocket body
Debris
Shape & HBR
Trap Box + 2 Pan, 5 m
Radar Cross Section
2.957 m², Large (>1 m²)

Expand to show TLE details & history

TLE from 22 hours ago
0 ONEWEB-0053
1 45157U 20008AC  25128.50583962  .00000333  00000-0  91638-3 0  9997
2 45157  87.8790 116.9763 0001864  78.9242 281.2095 13.10369677254918
Epoch: 2025-05-08T12:08Z
Definitive object data (Epoch: 2025-05-08T12:08:24.543Z)
Latitude
0.00001°
Longitude
68.29867°
Altitude
1,224.342 km
Speed
7.242 km/s
True Right ascension
07h 47m 54s
True Declination
0° 00' 00"
Sunlit
Object was in daylight at TLE epoch
Visualization TLE readout
Latitude
-76.95698°
Longitude
58.96655°
Altitude
1,250.716 km
Speed
7.229 km/s
Apparent Right ascension
06h 13m 35s
Apparent Declination
-60° 16' 55"
Sunlit
Object is in daylight
Visualization observer readout
Local Sidereal Time
17:53:40
Azimuth
187.019° SSW
Elevation
-69.4°
Doppler factor
1
Orbital elements
Apogee altitude
1,220.265 km
Perigee altitude
1,217.433 km
Semi-major axis
7,596.986 km
Eccentricity
0.0001864
Inclination
87.879°
RAAN
116.9763°
Arg. of periapsis
78.9242°
True anomaly
281.18855°
Mean anomaly
281.2095°
Eccentric anomaly
281.19902°
Mean motion
3.27779 °/min
BSTAR
0.00091638
Orbital period
109.83 mins
Loading maneuver chart data...
Loading SW <> Apogee altitude chart data...
Loading historical data...
Loading historical data...
Loading historical data...
Loading historical data...
Loading historical data...
Loading historical data...
Loading historical data...

ONEWEB-0053 Visibility forecast

Observer location: undefined°, undefined°

Span
Click to sort rows by Start time (UTC) header in descending order
Start Az.
Max El. time (UTC)
Max El. Az.
Max El.
End time (UTC)
End Az.
13 mins2025-05-09 10:44:18.295Z12.974° NNE2025-05-09 10:50:18.295Z79.585° E36.917°2025-05-09 10:57:18.295Z157.014° SSE
10 mins2025-05-09 12:35:18.295Z331.959° NNW2025-05-09 12:40:18.295Z279.158° WNW26.503°2025-05-09 12:45:18.295Z229.58° WSW
12 mins2025-05-09 23:04:18.295Z155.109° SSE2025-05-09 23:10:18.295Z70.032° E39.005°2025-05-09 23:16:18.295Z10.927° NNE
10 mins2025-05-10 00:55:18.295Z233.92° WSW2025-05-10 01:00:18.295Z284.32° WNW24.034°2025-05-10 01:05:18.295Z332.705° NNW
|